817  
NZUS93 KARX 180110  
HRRWXR  
 
CURRENT HOURLY OBSERVATIONS ACROSS  
MUCH OF THE UPPER MISSISSIPPI VALLEY  
NATIONAL WEATHER SERVICE LA CROSSE WI  
800 PM CDT FRI AUG 17 2018  
 
   
..SOUTHEAST MINNESOTA
 
 
 
CITY SKY/WX TMP DP RH WIND PRES REMARKS  
ROCHESTER FAIR 71 66 84 N8 30.07R  
ROCHESTER/MAYO FAIR 74 65 73 NW5 30.06S  
WINONA FAIR 77 66 69 CALM 30.03R  
AUSTIN FAIR 72 66 83 N3 30.06S  
ALBERT LEA FAIR 72 66 83 CALM 30.07S  
DODGE CENTER FAIR 70 64 83 CALM 30.07S  
PRESTON NOT AVBL  
OWATONNA FAIR 72 70 94 CALM 30.07R  
FARIBAULT FAIR 72 70 94 NW3 30.07R  

 
   
..ELSEWHERE IN MINNESOTA
 
 
 
CITY SKY/WX TMP DP RH WIND PRES REMARKS  
MINNEAPOLIS MOCLDY 81 60 48 N5 30.06R  
INTNL FALLS FAIR 66 62 87 CALM 30.09R  
DULUTH FAIR 65 59 81 E9 30.12R  
RED WING FAIR 77 61 57 N5 30.03S  
REDWOOD FALLS CLEAR 74 67 78 NW5 30.08S  
MANKATO FAIR 74 68 81 N5 30.07  
WORTHINGTON CLEAR 71 66 84 N5 30.11S  
FAIRMONT CLEAR 71 68 90 N3 30.08S  

 
   
..SOUTHWEST WISCONSIN
 
 
 
CITY SKY/WX TMP DP RH WIND PRES REMARKS  
LA CROSSE FAIR 75 70 84 CALM 30.00S  
PRAIRIE DU CHI CLOUDY 75 67 76 CALM 30.01S  
BOSCOBEL FAIR 74 70 87 CALM 30.01R  
LONE ROCK FAIR 73 70 90 CALM 30.00R  
PLATTEVILLE FAIR 72 71 98 N6 30.01S  
FORT MC COY FAIR 67 66 97 CALM 30.03R  
CAMP DOUGLAS FAIR 71 71 100 W3 30.01S  
MAUSTON-NEW LI FAIR 71 71 97 CALM 30.01R FOG  
VIROQUA FAIR 71 71 99 CALM 30.04R  
WIS DELLS CLOUDY 73 68 83 CALM 30.02S  

 
   
..ELSEWHERE IN WISCONSIN
 
 
 
CITY SKY/WX TMP DP RH WIND PRES REMARKS  
MILWAUKEE FAIR 74 67 78 NE6 29.99R  
MADISON MOCLDY 73 68 84 CALM 30.00R  
GREEN BAY FAIR 73 63 70 NE3 30.00R  
EAU CLAIRE FAIR 75 67 76 CALM 30.04R  
BLACK RVR FLS FAIR 72 72 100 CALM 30.02R FOG  
MEDFORD FAIR 71 63 74 N6 30.07R  
WAUSAU FAIR 76 61 59 N8 30.03R  
WIS RAPIDS FAIR 75 67 76 NW3 30.03R  
MARSHFIELD FAIR 76 64 66 N9 30.04R  
RICE LAKE FAIR 73 67 80 CALM 30.08S  

 
   
..NORTHEAST IOWA
 
 
 
CITY SKY/WX TMP DP RH WIND PRES REMARKS  
WATERLOO FAIR 75 71 87 N9 30.01R  
DUBUQUE MOCLDY 71 67 87 N6 30.02S  
DECORAH FAIR 73 72 94 CALM 30.03S  
MASON CITY CLEAR 70 68 93 NW7 30.08R  
CHARLES CITY FAIR 72 68 88 N8 30.05R  
OELWEIN FAIR 75 73 94 CALM 30.03S  

 
   
..ELSEWHERE IN IOWA
 
 
 
CITY SKY/WX TMP DP RH WIND PRES REMARKS  
DES MOINES PTCLDY 80 66 62 N6 30.02R  
IOWA CITY FAIR 80 69 69 N7 30.00R  
FORT DODGE CLEAR 74 66 76 N5 30.06S  
MARSHALLTOWN CLEAR 75 73 93 NW5 30.01S  
CEDAR RAPIDS FAIR 76 70 82 N6 29.99R  

 
   
..NORTHERN ILLINOIS
 
 
 
CITY SKY/WX TMP DP RH WIND PRES REMARKS  
CHICAGO-OHARE FAIR 77 65 66 NE7 29.98R  
CHICAGO-MIDWAY MOCLDY 77 68 73 E10 29.97R  
MOLINE FAIR 77 67 71 NE6 29.97R  
ROCKFORD FAIR 74 67 78 N5 29.98S  
PEORIA FAIR 76 70 82 CALM 29.97R  

 
 
NOTE: "FAIR" INDICATES FEW OR NO CLOUDS BELOW 12,000 FEET WITH NO  
SIGNIFICANT WEATHER AND/OR OBSTRUCTIONS TO VISIBILITY. WIND  
SPEEDS ARE IN MILES-PER-HOUR.  
 
 
CLICK HERE TO GO TO PREVIOUS BULLETINS.

The Nexlab WI Page
The Nexlab IA Page
The Nexlab MN Page Main Text Page